North Andover, MA

2:00 AM EST on February 25, 2017 (GMT -0500)
Lawrence Municipal

Weather History for KLWM - March, 2014

Change the Weather History Date:

Wednesday, March 19, 2014

  Actual Average Record
Temperature  
Mean Temperature 30 °F -  
Max Temperature 42 °F 43 °F 80 °F (2012)
Min Temperature 19 °F 26 °F 4 °F (1967)
Degree Days  
Heating Degree Days 35    
Moisture  
Dew Point 21 °F    
Average Humidity 64    
Maximum Humidity 85    
Minimum Humidity 41    
Precipitation  
Precipitation 0.00 in - - ()
Sea Level Pressure  
Sea Level Pressure 30.28 in    
Wind  
Wind Speed 3 mph (ESE)    
Max Wind Speed 10 mph    
Max Gust Speed 17 mph    
Visibility 10 miles    
Events Rain    
Averages and records for this station are not official NWS values.
T = Trace of Precipitation, MM = Missing Value Source: NWS Daily Summary

Daily Weather History Graph

Daily Weather History Graph

Search for Another Location

Airport or City:

Trip Planner

Search our weather history database for the weather conditions in past years. The results will help you decide how hot, cold, wet, or windy it might be!

Date:

Astronomy

Mar. 19, 2014 Rise Set
Actual Time 6:49 AM EDT 6:55 PM EDT
Civil Twilight 6:21 AM EDT 7:23 PM EDT
Nautical Twilight 5:48 AM EDT 7:56 PM EDT
Astronomical Twilight 5:14 AM EDT 8:30 PM EDT
Moon 10:15 PM EDT (3/19) 8:09 AM EDT (3/19)
Length of Visible Light 13h 02m
Length of Day
12h 06m
Waning Gibbous, 91% of the Moon is Illuminated
Mar 19
Waning Gibbous
Mar 23
Last Quarter
Mar 30
New
Apr 7
First Quarter
Apr 15
Full

Hourly Weather History & Observations

Time (EDT) Temp. Windchill Dew Point Humidity Pressure Visibility Wind Dir Wind Speed Gust Speed Precip Events Conditions
12:54 AM 23.0 °F - 16.0 °F 74% 30.36 in 10.0 mi Calm Calm - N/A   Clear
1:54 AM 23.0 °F - 17.1 °F 78% 30.36 in 10.0 mi Calm Calm - N/A   Clear
2:54 AM 21.9 °F - 17.1 °F 82% 30.35 in 10.0 mi Calm Calm - N/A   Clear
3:54 AM 19.9 °F 14.9 °F 15.1 °F 81% 30.35 in 10.0 mi NE 3.5 mph - N/A   Clear
4:54 AM 21.0 °F - 16.0 °F 81% 30.36 in 10.0 mi Calm Calm - N/A   Clear
5:54 AM 21.0 °F - 16.0 °F 81% 30.37 in 10.0 mi Calm Calm - N/A   Clear
6:54 AM 19.9 °F - 16.0 °F 85% 30.39 in 10.0 mi Calm Calm - N/A   Clear
7:54 AM 23.0 °F - 18.0 °F 81% 30.42 in 10.0 mi Calm Calm - N/A   Clear
8:54 AM 28.0 °F - 19.9 °F 72% 30.40 in 10.0 mi Calm Calm - N/A   Clear
9:54 AM 35.1 °F 30.1 °F 21.0 °F 57% 30.39 in 10.0 mi East 5.8 mph - N/A   Clear
10:29 AM 37.0 °F 31.0 °F 19.9 °F 50% 30.36 in 10.0 mi SE 8.1 mph 16.1 mph N/A   Scattered Clouds
10:54 AM 39.0 °F 32.8 °F 21.0 °F 49% 30.37 in 10.0 mi East 9.2 mph - N/A   Scattered Clouds
11:54 AM 41.0 °F 34.7 °F 19.0 °F 41% 30.35 in 10.0 mi East 10.4 mph - N/A   Clear
11:58 AM 41.0 °F 34.7 °F 19.0 °F 41% 30.34 in 10.0 mi ESE 10.4 mph - N/A   Mostly Cloudy
12:33 PM 41.0 °F 34.7 °F 21.0 °F 45% 30.33 in 1.8 mi SSE 10.4 mph - N/A   Haze
12:54 PM 39.9 °F 35.8 °F 21.0 °F 47% 30.33 in 10.0 mi Variable 5.8 mph - N/A   Mostly Cloudy
1:54 PM 39.9 °F 35.1 °F 21.9 °F 49% 30.30 in 10.0 mi Variable 6.9 mph - N/A   Overcast
2:54 PM 39.0 °F 34.0 °F 23.0 °F 53% 30.27 in 10.0 mi Variable 6.9 mph 17.3 mph N/A   Overcast
3:54 PM 39.0 °F 33.4 °F 24.1 °F 55% 30.24 in 10.0 mi SE 8.1 mph - N/A   Overcast
4:54 PM 37.9 °F 32.7 °F 25.0 °F 60% 30.22 in 10.0 mi ESE 6.9 mph - N/A   Overcast
5:54 PM 37.0 °F 32.4 °F 25.0 °F 62% 30.19 in 10.0 mi ESE 5.8 mph - 0.00 in   Overcast
6:54 PM 37.0 °F 31.0 °F 25.0 °F 62% 30.18 in 10.0 mi ESE 8.1 mph - N/A   Overcast
7:54 PM 36.0 °F 29.6 °F 26.1 °F 67% 30.15 in 10.0 mi East 8.1 mph - 0.00 in Rain Light Rain
8:54 PM 36.0 °F 30.3 °F 26.1 °F 67% 30.15 in 10.0 mi ESE 6.9 mph - 0.00 in   Overcast
9:54 PM 36.0 °F 30.3 °F 26.1 °F 67% 30.11 in 10.0 mi East 6.9 mph - N/A   Overcast
10:45 PM 36.0 °F 32.1 °F 27.0 °F 70% 30.09 in 10.0 mi East 4.6 mph - N/A   Overcast
10:54 PM 36.0 °F 31.1 °F 27.0 °F 70% 30.08 in 10.0 mi East 5.8 mph - N/A   Overcast
11:54 PM 35.1 °F - 28.0 °F 76% 30.03 in 10.0 mi Calm Calm - 0.00 in   Overcast